Regional Weather Roundup
Issued by NWS

Home | Current Version | Previous Version | Text Only | Print | Product List | Glossary On
Versions: 1 2 3 4 5 6 7 8 9 10 11 12 13 14 15 16 17 18 19 20 21 22 23 24 25 26 27 28 29 30 31 32 33 34 35 36 37 38 39 40 41 42 43 44 45 46 47 48 49 50
000
ASUS44 KMEG 171110
RWRTN
TENNESSEE HOURLY STATE WEATHER ROUNDUP
NATIONAL WEATHER SERVICE MEMPHIS TN
600 AM CDT TUE OCT 17 2017

TNZ002-004-019-021-049-052-054-088>092-171200-
WEST TENNESSEE

CITY           SKY/WX    TMP DP  RH WIND       PRES   REMARKS
MEMPHIS INTL   CLEAR     47  41  80 CALM      30.30S
NWS MEMPHIS      N/A     42 N/A N/A MISG        N/A
JACKSON        CLEAR     37  37 100 CALM      30.32F
COVINGTON      CLEAR     36  36 100 CALM      30.32R
UNION CITY     CLEAR     36  36 100 N5        30.33R WCI  32
BOLIVAR        CLEAR     37  37 100 CALM      30.31S
PARIS          CLEAR     39  39 100 CALM      30.32S
HUNTINGDON     CLEAR     39  39 100 CALM      30.31F
LEXINGTON      CLEAR     39  39 100 CALM      30.32R
SELMER         CLEAR     39  37  93 N3        30.32R
SAVANNAH       CLEAR     36  36 100 CALM      30.32R
$$

TNZ008-025-027-028-033-062-065-066-171200-
NORTH MIDDLE TENNESSEE

CITY           SKY/WX    TMP DP  RH WIND       PRES   REMARKS
NASHVILLE      CLEAR     43  40  89 CALM      30.34R
PORTLAND       CLEAR     39  39 100 CALM      30.34R FOG
CLARKSVILLE    CLEAR     40  37  89 CALM      30.34S
SMYRNA         CLEAR     40  39  97 CALM      30.35S
COOKEVILLE     CLEAR     36  36 100 CALM      30.32S
GALLATIN       CLEAR     39  39 100 CALM      30.37R
CROSSVILLE     CLEAR     39  37  92 NE6       30.32S WCI  35
$$

TNZ061-075-076-078-094-096-097-171200-
SOUTH MIDDLE TENNESSEE

CITY           SKY/WX    TMP DP  RH WIND       PRES   REMARKS
FAYETTEVILLE   CLEAR     45  41  87 NE7       30.30S
TULLAHOMA        N/A     43  39  87 CALM      30.32R
WINCHESTER     CLEAR     37  37 100 CALM        N/A
COLUMBIA       FOG       39  39 100 CALM      30.31R VSB 0
SHELBYVILLE    CLEAR     37  37 100 CALM      30.32S
$$

TNZ017-018-042-046-047-171200-
NORTHEAST TENNESSEE

CITY           SKY/WX    TMP DP  RH WIND       PRES   REMARKS
TRI CITIES     PTCLDY    36  36 100 CALM      30.35R
ELIZABETHTON   CLEAR     36  36 100 CALM      30.35S
$$

TNZ012-013-036-069-073-074-171200-
CENTRAL EAST TENNESSEE

CITY           SKY/WX    TMP DP  RH WIND       PRES   REMARKS
KNOXVILLE      CLEAR     43  42  97 NE5       30.32R
DOWNTOWN KNOXV PTCLDY    43  43 100 CALM      30.34S
GATLINBURG     CLEAR     39  39 100 CALM      30.34S
MORRISTOWN     CLEAR     43  39  87 NE3       30.33S
JACKSBORO      FOG       37  37 100 CALM      30.38S VSB 1/4
$$

TNZ083-085-099-171200-
SOUTHEAST TENNESSEE

CITY           SKY/WX    TMP DP  RH WIND       PRES   REMARKS
CHATTANOOGA    CLEAR     49  41  74 NE7       30.33R
DAYTON         SUNNY     41  41 100 CALM      30.32R
$$

SKY/WX REPORTED AS FAIR MEANS FEW OR NO CLOUDS BELOW
12 THOUSAND FEET.




USA.gov is the U.S. government's official web portal to all federal, state and local government web resources and services.